Hourly Data Report for March 05, 2006

TORONTO CITY
ONTARIO

43°40'00.000" N
79°24'00.000" W
112.50 m
6158355
71508
XTO

Download Data

Hourly Data (March 2006)
Hourly Data Report for March 5, 2006
TIME
LST
Temp Definition
°C
Dew Point Definition
°C
Rel Hum Definition
%
Precip. Amount Definition
mm

Wind Dir Definition
10's deg

Wind Spd Definition
km/h
Visibility Definition
km
Stn Press Definition
kPa
Hmdx Definition


Wind Chill Definition


Weather Definition


00:00 -0.4 -6.6 63   LegendMM LegendMM   100.96     LegendNANA
01:00 -0.3 -6.6 62   LegendMM LegendMM   100.98     LegendNANA
02:00 -1.0 -7.2 63   LegendMM LegendMM   100.98     LegendNANA
03:00 -1.4 -8.6 58   LegendMM LegendMM   100.99     LegendNANA
04:00 -1.9 -9.7 55   LegendMM LegendMM   101.03     LegendNANA
05:00 -2.3 -10.4 54   LegendMM LegendMM   101.02     LegendNANA
06:00 -2.5 -11.9 48   LegendMM LegendMM   101.06     LegendNANA
07:00 -3.1 -12.1 50   LegendMM LegendMM   101.10     LegendNANA
08:00 -2.7 -12.3 48   LegendMM LegendMM   101.13     LegendNANA
09:00 -1.4 -11.0 48   LegendMM LegendMM   101.12     LegendNANA
10:00 0.0 -10.6 45   LegendMM LegendMM   101.13     LegendNANA
11:00 1.7 -10.7 39   LegendMM LegendMM   101.10     LegendNANA
12:00 2.5 -10.9 36   LegendMM LegendMM   101.04     LegendNANA
13:00 3.6 -10.9 34   LegendMM LegendMM   100.98     LegendNANA
14:00 3.6 -13.7 27   LegendMM LegendMM   100.89     LegendNANA
15:00 4.2 -12.6 28   LegendMM LegendMM   100.82     LegendNANA
16:00 4.2 -11.3 31   LegendMM LegendMM   100.78     LegendNANA
17:00 3.7 -11.8 31   LegendMM LegendMM   100.77     LegendNANA
18:00 3.0 -10.9 35   LegendMM LegendMM   100.79     LegendNANA
19:00 1.7 -9.0 45   LegendMM LegendMM   100.82     LegendNANA
20:00 0.7 -8.6 50   LegendMM LegendMM   100.80     LegendNANA
21:00 -0.3 -8.5 54   LegendMM LegendMM   100.80     LegendNANA
22:00 -0.8 -7.6 60   LegendMM LegendMM   100.79     LegendNANA
23:00 -1.3 -7.7 62   LegendMM LegendMM   100.78     LegendNANA

Notes on Data Quality.

Legend

  • E = Estimated
  • M = Missing
  • NA = Not Available*
  • [empty] = Indicates an unobserved value
Date modified: